Вернуться в каталог

OPS 4682 DEB

АктивенPO
NORAD 51764·DEBRIS·🇺🇸 United States

Запущен Apr 3, 1965 с Vandenberg Space Force Base

Loading…

Ближайшие Пролёты (ближайшие 24 часа)

TLE

СвежийSource: Space-Track

Эпоха: Sep 13, 2026, 19:22 UTC

1 51764U 65027GV  26256.80732281  .00000381  00000-0  13540-2 0  9992
2 51764  90.2591  10.7339 0038039  41.1880 111.4425 12.93676902604811

Отслеживайте OPS 4682 DEB в реальном времени с AllMySat

Download on the App Store